Hourly Data Report for September 20, 2017

All times are specified in Local Standard Time (LST). Add 1 hour to adjust for Daylight Saving Time where and when it is observed.

GRISE FIORD CLIMATE
NUNAVUT

76°25'22.040" N
82°54'08.020" W
44.50 m
2402351
71971
NGC

Download Data

Hourly Data (September 2017)
Hourly Data Report for September 20, 2017
Temp Definition
°C
Dew Point Temp Definition
°C
Rel Hum Definition
%
Wind Dir Definition
10's deg

Wind Spd Definition
km/h
Visibility Definition
km
Stn Press Definition
kPa
Hmdx Definition


Wind Chill Definition


Weather Definition


TIME
00:00 -5.2 -8.8 76 5 8   102.30   -9 LegendNANA
01:00 -6.4 -9.0 82 12 10   102.31   -11 LegendNANA
02:00 -6.1 -9.7 76 8 5   102.32   -9 LegendNANA
03:00 -6.5 -10.5 73 4 6   102.32   -9 LegendNANA
04:00 -6.6 -9.0 83 10 8   102.34   -10 LegendNANA
05:00 -6.3 -9.0 82 5 8   102.34   -10 LegendNANA
06:00 -7.4 -10.5 79 6 6   102.35   -11 LegendNANA
07:00 -5.7 -8.9 78 8 6   102.36   -9 LegendNANA
08:00 -7.8 -10.8 79 5 6   102.40   -11 LegendNANA
09:00 -6.7 -9.7 79 6 3   102.38   -8 LegendNANA
10:00 -3.7 -10.4 60 12 3   102.36   -5 LegendNANA
11:00 -3.0 -8.2 67 14 11   102.34   -7 LegendNANA
12:00 -2.3 -8.2 64 8 5   102.34   -4 LegendNANA
13:00 -2.1 -9.4 57 13 7   102.32   -5 LegendNANA
14:00 -2.1 -8.7 60 13 8   102.34   -5 LegendNANA
15:00 -1.6 -7.5 64 16 10   102.37   -5 LegendNANA
16:00 -2.0 -6.8 70 18 6   102.40   -4 LegendNANA
17:00 -3.1 -7.1 73 12 9   102.40   -7 LegendNANA
18:00 -2.6 -5.7 79 17 5   102.41   -5 LegendNANA
19:00 -4.0 -6.0 86 7 6   102.41   -7 LegendNANA
20:00 -5.7 -8.4 82 6 3   102.41   -7 LegendNANA
21:00 -4.7 -7.4 82 13 6   102.40   -7 LegendNANA
22:00 -6.0 -9.4 77 4 9   102.37   -10 LegendNANA
23:00 -4.9 -10.0 67 2 7   102.34   -8 LegendNANA

Notes on Data Quality.

Legend

  • E = Estimated
  • M = Missing
  • NA = Not Available
  • ‡ = Partner data that is not subject to review by the National Climate Archives
Date modified: